Probability
3 3 3 0 0 3 0 0 0 0 0 0 0 0 0 0 0 0 0 0 0 0 0 0 0 0 0 0 0 0 0 0 0 0 0 0 0 0 0 0 0 0 0
0 0 0 0 0 0 0 0 0 0 0 0 0 0 0 0 0 0 0 0 0 0 0 0 0 0 0 0 0 0 0 0 0 0 0 0 0 0 0 0 0 0 0
0 0 0 0 0 0 0 0 0 0 0 0 0 0 0 0 0 0 0 0 0 0 0 0 0 0 0 0 0 0 0 0 0 0 0 0 0 0 0 0 0 0 0
0 0 0 0 0 0 0 0 0 0 0 0 0 0 0 0 0 0 0 0 0 0 0 0 0 0 0 0 0 0 0 0 0 0 0 0 0 0 0 0 0 0 0
0 0 0 0 0 0 0 0 0 0 0 0 0 0 0 0 0 0 0 0 0 0 0 0 0 0 0 0 0 0 0 0 0 0 0 0 0 0 0 0 0 0 0
0 0 0 0 0 0 0 0 0 0 0 0 0 0 0 0 0 0 0 0 0 0 0 0 0 0 0 0 0 0 0 0 0 0 0 0 0 0 0 0 0 0 0
0 0 0 0 0 0 0 0 0 0 0 0 0 0 0 0 0 0 0 0 0 0 0 0 0 0 0 0 0 0 0 0 0 0 0 0 0 0 0 0 0 0 0
0 0 0 0 0 0 0 0 0 0 0 0 0 0 0 0 0 0 0 0 0 0 0 0 0 0 0 0 0 0 0 0 0 0 0 0 0 0 0 0 0 0 0
0 0 0 0 0 0 0 0 0 0 0 0 0 0 0 0 0 0 0 0 0 0 0 0 0 0 0 0 0 0 0 0 0 0 0 0 0 0 0 0 0 0 0
0 0 0 0 0 0 0 0 0 0 0 0 0 0 0 0 0 0 0 0 0 0 0 0 0 0 0 0 0 0 0 0 0 0 0 0 0 0 0 0 0 0 0
0 0 0 0 0 0 0 0 0 0 0 0 0 0 0 0 0 0 0 0 0 0 0 0 0 0 0 0 0 0 0 0 0 0 0 0 0 0 0 0 0 0 0
0 0 0 0 0 0 0 0 0 0 0 0 0 0 0 0 0 0 0 0 0 0 0 0 0 0 0 0 0 0 0 0 0 0 0 0 0 0 0 0 0 0 0
0 0 0 0 0 0 0 0 0 0 0 0 0 0 0 0 0 0 0 0 0 0 0 0 0 0 0 0 0 0 0 0 0 0 0 0 0 0 0 0 0 0 0
0 0 0 0 0 0 0 0 0 0 0 0 0 0 0 0 0 0 0 0 0 0 0 0 0 0 0 0 0 0 0 0 0 0 0 0 0 0 0 0 0 0 0
0 0 0 0 0 0 0 0 0 0 0 0 0 0 0 0 0 0 0 0 0 0 0 0 0 0 0 0 0 0 0 0 0 0 0 0 0 0 0 0 0 0 0
0 0 0 0 0 0 0 0 0 0 0 0 0 0 0 0 0 0 0 0 0 0 0 0 0 0 0 0 0 0 0 0 0 0 0 0 0 0 0 0 0 0 0
0 0 0 0 0 0 0 0 0 0 0 0 0 0 0 0 0 0 0 0 0 0 0 0 0 0 0 0 0 0 0 0 0 0 0 0 0 0 0 0 0 0 0
0 0 0 0 0 0 0 0 0 0 0 0 0 0 0 0 0 0 0 0 0 0 0 0 0 0 0 0 0 0 0 0 0 0 0 0 0 0 0 0 0 0 0
0 0 0 0 0 0 0 0 0 0 0 0 0 0 0 0 0 0 0 0 0 0 0 0 0 0 0 0 0 0 0 0 0 0 0 0 0 0 0 0 0 0 0
0 0 0 0 0 0 0 0 0 0 0 0 0 0 0 0 0 0 0 0 0 0 0 0 0 0 0 0 0 0 0 0 0 0 0 0 0 0 0 0 0 0 0
0 0 0 0 0 0 0 0 0 0 0 0 0 0 0 0 0 0 0 0 0 0 0 0 0 0 0 0 0 0 0 0 0 0 0 0 0 0 0 0 0 0 0
0 0 0 0 0 0 0 0 0 0 0 0 0 0 0 0 0 0 0 0 0 0 0 0 0 0 0 0 0 0 0 0 0 0 0 0 0 0 0 0 0 0 0
0 0 0 0 0 0 0 0 0 0 0 0 0 0 0 0 0 0 0 0 0 0 0 0 0 0 0 0 0 0 0 0 0 0 0 0 0 0 0 0 0 0 0
0 0 0 0 0 0 0 0 0 0 0 0 0 0 0 0 0 0 0 0 0 0 0 0 0 0 0 0 0 0 0 0 0 0 0 0 0 0 0 0 0 0 0
0 0 0 0 0 0 0 0 0 0 0 0 0 0 0 0 0 0 0 0 0 0 0 0 0 0 0 0 0 0 0 0 0 0 0 0 0 0 0 0 0 0 0
0 0 0 0 0 0 0 0 0 0 0 0 0 0 0 0 0 0 0 0 0 0 0 0 0 0 0 0 0 0 0 0 0 0 0 0 0 0 0 0 0 0 0
Height
5763 5761 5758 5756 5753 5750 5747 5745 5742 5739 5736 5733 5730 5728 5724 5721 5718 5715 5712 5710 5706 5704 5701 5697 5695 5692 5690 5688 5687 5686 5685 5685 5685 5686 5686 5685 5685 5686 5687 5688 5689 5690 5692
5759 5757 5754 5752 5749 5746 5743 5740 5737 5734 5731 5729 5726 5723 5719 5716 5712 5709 5707 5703 5700 5697 5694 5691 5688 5686 5684 5682 5681 5679 5678 5678 5678 5678 5677 5677 5676 5677 5677 5678 5679 5681 5682
5756 5752 5750 5747 5745 5742 5740 5736 5733 5730 5727 5724 5721 5717 5714 5711 5707 5704 5701 5697 5694 5691 5687 5684 5681 5679 5677 5675 5674 5673 5672 5671 5670 5670 5670 5669 5668 5668 5668 5669 5670 5671 5672
5752 5748 5746 5743 5741 5738 5735 5732 5729 5726 5722 5719 5716 5712 5709 5706 5702 5699 5695 5692 5688 5685 5681 5678 5675 5673 5671 5669 5668 5667 5665 5664 5664 5663 5662 5661 5661 5660 5660 5661 5661 5661 5663
5749 5745 5742 5739 5737 5734 5731 5728 5725 5721 5718 5715 5711 5707 5704 5700 5697 5693 5689 5686 5683 5679 5676 5673 5670 5667 5665 5663 5662 5660 5659 5658 5657 5656 5656 5654 5653 5652 5652 5652 5652 5652 5653
5746 5742 5739 5736 5733 5730 5727 5724 5721 5717 5714 5710 5706 5702 5699 5695 5691 5687 5684 5681 5677 5674 5671 5667 5664 5662 5659 5657 5656 5654 5653 5652 5651 5650 5649 5647 5646 5644 5643 5643 5643 5644 5645
5743 5739 5736 5733 5730 5726 5723 5720 5716 5713 5710 5706 5702 5698 5694 5691 5686 5683 5678 5675 5672 5669 5666 5663 5660 5657 5654 5652 5650 5648 5647 5646 5645 5644 5642 5640 5639 5637 5636 5636 5636 5636 5636
5740 5736 5733 5729 5726 5723 5720 5716 5712 5709 5706 5702 5698 5694 5691 5687 5682 5678 5674 5671 5667 5664 5661 5658 5655 5653 5650 5648 5646 5644 5642 5640 5639 5638 5636 5634 5632 5631 5630 5630 5629 5629 5629
5737 5733 5730 5726 5723 5720 5716 5713 5709 5706 5702 5698 5695 5691 5687 5683 5679 5675 5671 5668 5664 5660 5657 5654 5651 5649 5646 5644 5642 5640 5637 5635 5633 5632 5630 5628 5627 5626 5625 5624 5623 5623 5623
5733 5730 5727 5724 5720 5717 5713 5710 5707 5703 5699 5695 5692 5688 5685 5681 5677 5673 5669 5665 5661 5657 5654 5650 5647 5644 5642 5640 5638 5635 5633 5631 5629 5627 5625 5623 5622 5620 5619 5618 5617 5617 5616
5730 5727 5724 5721 5718 5714 5711 5708 5704 5700 5697 5693 5690 5686 5682 5679 5675 5671 5667 5663 5659 5655 5651 5647 5644 5641 5638 5636 5634 5631 5629 5626 5624 5622 5620 5618 5617 5615 5614 5613 5612 5611 5610
5727 5724 5721 5718 5715 5712 5709 5706 5702 5698 5695 5691 5687 5684 5680 5677 5673 5669 5665 5660 5656 5652 5648 5645 5641 5638 5635 5632 5630 5627 5625 5622 5620 5618 5616 5614 5612 5611 5609 5608 5606 5605 5604
5724 5721 5718 5715 5712 5709 5706 5703 5700 5696 5693 5689 5686 5682 5679 5675 5671 5667 5663 5658 5654 5650 5646 5642 5639 5635 5632 5629 5626 5623 5620 5618 5616 5613 5611 5610 5608 5606 5604 5603 5601 5600 5599
5722 5719 5716 5713 5710 5707 5704 5701 5698 5695 5691 5688 5685 5681 5677 5674 5670 5666 5661 5657 5653 5648 5644 5640 5636 5633 5629 5626 5623 5620 5617 5614 5612 5609 5607 5605 5603 5601 5599 5598 5596 5594 5593
5719 5716 5714 5711 5708 5705 5702 5699 5695 5692 5689 5686 5683 5680 5676 5673 5669 5664 5660 5656 5651 5647 5642 5638 5634 5631 5627 5624 5620 5617 5614 5611 5608 5605 5602 5600 5598 5596 5594 5592 5591 5589 5587
5716 5714 5711 5709 5706 5703 5700 5696 5693 5690 5688 5685 5682 5678 5675 5671 5667 5663 5659 5654 5650 5645 5641 5636 5632 5629 5625 5622 5618 5615 5612 5608 5605 5602 5598 5596 5593 5591 5589 5587 5586 5584 5583
5713 5711 5709 5706 5704 5701 5698 5694 5691 5689 5686 5683 5680 5677 5673 5670 5666 5662 5658 5653 5648 5643 5639 5635 5631 5627 5623 5620 5616 5612 5609 5606 5602 5598 5595 5592 5589 5586 5584 5582 5581 5579 5578
5710 5708 5706 5703 5701 5698 5695 5692 5689 5686 5684 5681 5678 5675 5672 5669 5665 5660 5656 5651 5647 5642 5638 5633 5629 5625 5621 5617 5614 5610 5606 5602 5599 5595 5591 5588 5584 5582 5579 5578 5576 5574 5573
5706 5704 5702 5700 5698 5695 5693 5690 5687 5684 5682 5679 5677 5674 5670 5667 5663 5658 5654 5650 5645 5640 5636 5632 5628 5623 5619 5615 5611 5607 5603 5599 5595 5591 5587 5584 5581 5578 5575 5573 5571 5569 5567
5702 5700 5698 5696 5694 5692 5689 5687 5685 5682 5680 5677 5675 5672 5668 5665 5661 5657 5652 5648 5643 5639 5634 5630 5626 5621 5617 5612 5608 5604 5600 5596 5592 5588 5584 5581 5577 5574 5571 5568 5566 5564 5561
5698 5696 5695 5693 5690 5688 5686 5684 5682 5680 5678 5675 5672 5669 5666 5663 5659 5655 5650 5646 5641 5637 5632 5628 5624 5619 5614 5610 5606 5601 5597 5593 5589 5585 5581 5577 5574 5570 5567 5564 5562 5559 5557
5693 5692 5690 5688 5687 5685 5683 5681 5679 5677 5675 5672 5669 5667 5664 5660 5657 5653 5648 5644 5639 5635 5630 5626 5621 5617 5612 5608 5603 5598 5594 5590 5586 5581 5578 5574 5570 5567 5564 5561 5558 5555 5553
5688 5687 5686 5684 5683 5681 5680 5678 5676 5674 5672 5669 5667 5664 5661 5658 5654 5650 5646 5642 5637 5633 5628 5623 5619 5614 5609 5605 5600 5595 5591 5587 5583 5579 5575 5571 5567 5564 5561 5558 5555 5552 5550
5684 5683 5682 5680 5679 5677 5676 5674 5673 5671 5668 5666 5664 5661 5658 5655 5651 5647 5643 5639 5634 5630 5625 5621 5616 5611 5606 5602 5597 5592 5588 5583 5579 5576 5572 5568 5564 5561 5558 5555 5552 5549 5546
5679 5678 5677 5676 5675 5674 5672 5671 5669 5667 5665 5663 5661 5658 5655 5651 5648 5644 5640 5636 5631 5627 5622 5618 5613 5608 5604 5599 5594 5589 5585 5580 5576 5573 5569 5565 5562 5558 5555 5552 5549 5546 5543
5674 5673 5673 5672 5671 5669 5668 5667 5665 5664 5662 5659 5657 5654 5651 5648 5645 5641 5637 5633 5628 5624 5619 5615 5610 5605 5601 5596 5591 5587 5582 5578 5573 5570 5566 5562 5559 5555 5552 5549 5546 5543 5541
Wind_Speed
20 20 21 21 21 21 21 21 21 22 22 22 21 21 22 24 24 25 25 25 25 25 26 25 24 23 23 23 24 24 25 25 25 25 25 26 27 28 29 31 31 32 32
20 20 20 20 21 21 20 21 21 21 21 21 22 22 23 24 24 24 24 25 25 25 24 24 23 22 22 22 22 23 23 23 23 23 24 25 26 27 28 29 30 31 32
20 21 20 20 20 20 20 20 21 20 20 21 22 22 23 24 23 23 23 23 23 24 24 23 21 21 21 21 21 22 22 23 23 23 23 24 25 25 26 27 29 30 32
20 20 19 19 19 19 20 21 20 20 21 22 22 22 22 23 22 22 22 23 23 23 23 22 21 21 21 21 21 22 22 22 22 22 22 22 23 24 25 26 27 29 30
19 18 19 19 18 19 20 20 20 20 21 21 22 22 22 22 23 23 23 23 23 22 22 22 21 21 21 20 20 20 20 21 21 21 21 22 23 24 25 26 26 26 28
19 19 19 18 18 19 19 19 20 21 22 22 23 23 23 23 23 23 22 22 21 21 21 21 21 20 19 19 19 19 19 19 19 20 21 21 22 23 24 24 23 24 25
19 19 19 19 19 20 20 20 21 21 22 22 22 22 22 22 22 22 21 21 21 21 21 20 19 18 18 17 18 18 18 18 18 19 20 20 20 20 20 20 21 21 22
20 19 19 20 20 20 20 21 21 21 21 21 21 21 21 22 22 21 21 21 20 20 20 19 18 17 17 17 17 17 18 18 18 17 17 18 17 17 17 17 18 19 20
20 19 19 19 20 20 20 20 20 20 20 19 19 20 20 21 20 20 20 21 20 20 19 19 18 16 17 17 16 16 16 17 16 16 15 15 15 16 16 17 18 19 19
20 19 19 19 19 18 18 19 19 19 19 19 19 19 19 19 19 19 19 20 20 20 19 18 18 17 17 17 16 15 15 15 15 15 15 15 15 16 17 17 18 18 18
19 19 19 18 18 18 18 17 18 19 18 18 18 18 18 18 19 19 19 20 20 20 19 18 18 17 17 16 17 16 16 15 15 15 15 14 14 15 16 17 18 18 18
19 18 18 18 17 17 17 17 18 18 17 17 17 18 17 18 19 19 20 20 20 20 19 18 18 17 17 16 17 17 16 16 15 15 15 14 14 15 15 16 16 17 17
17 17 17 17 16 16 17 17 18 17 17 17 17 17 17 18 19 20 20 21 21 20 19 18 17 17 16 16 16 16 16 15 15 15 15 15 15 14 14 15 15 15 15
16 17 17 17 16 16 17 17 17 16 16 16 16 17 18 18 19 19 20 21 21 21 20 19 18 17 17 17 17 16 16 16 15 16 16 16 15 14 14 15 16 16 15
15 16 16 17 17 16 16 17 16 15 15 15 16 17 18 19 19 19 20 21 22 22 21 20 20 19 18 17 17 17 17 16 16 16 16 16 15 15 15 15 15 15 16
15 16 16 16 16 16 17 16 15 14 14 14 15 17 18 19 19 19 20 21 22 22 21 21 20 19 18 17 17 17 17 17 17 16 16 16 16 16 16 16 15 15 15
15 15 16 16 16 16 16 16 15 15 15 15 16 17 17 18 19 20 21 22 22 22 22 21 20 20 19 18 18 18 18 18 18 17 17 17 17 16 16 15 15 15 16
15 15 16 16 16 16 16 16 16 15 15 15 16 16 16 17 19 20 21 22 22 22 21 21 21 21 20 20 19 18 19 19 19 19 18 18 17 16 16 15 15 16 15
16 15 16 17 16 16 16 16 15 15 15 15 15 15 17 18 19 20 22 22 22 21 21 21 22 22 21 20 20 20 20 20 20 20 19 18 17 17 17 16 16 16 15
16 16 16 16 16 16 15 15 15 15 14 15 15 16 17 19 20 21 22 22 22 22 21 22 22 23 22 21 20 21 21 21 21 20 20 19 18 18 17 17 16 16 15
16 16 16 16 15 15 15 15 15 14 14 15 16 16 18 19 20 21 21 22 22 22 22 22 23 23 22 22 21 21 21 21 21 20 20 19 18 18 17 17 16 15 15
16 16 16 16 15 14 14 14 14 14 15 15 16 17 17 18 20 20 21 22 22 22 22 22 23 23 22 22 22 22 22 22 21 20 20 19 18 18 17 17 16 15 14
16 16 15 15 14 14 13 13 14 15 15 15 15 17 17 18 19 20 21 22 22 22 23 24 24 23 23 23 23 23 22 21 21 21 21 20 19 18 16 16 16 15 15
16 16 15 14 14 14 13 13 14 15 15 15 15 16 18 19 20 21 22 22 22 23 23 24 24 24 23 23 23 23 22 22 21 21 21 20 19 18 17 16 16 16 15
15 14 14 14 14 14 14 14 14 15 15 16 16 16 18 19 20 21 21 22 22 22 23 24 24 24 24 23 23 23 22 22 22 21 20 20 19 19 18 17 17 16 15
17 16 16 15 14 14 14 14 14 15 16 16 17 17 18 19 19 20 21 22 22 22 23 24 24 24 24 23 23 23 23 22 21 21 20 19 19 19 18 17 16 16 15
Wind_Direction
311 312 312 312 313 315 315 313 313 313 314 314 310 310 311 310 307 305 306 307 305 303 301 298 295 293 289 284 280 277 275 274 272 270 268 266 264 262 259 255 254 255 255
311 311 312 314 315 316 317 316 315 316 316 315 312 311 312 313 311 308 308 309 309 307 305 301 296 293 291 288 284 281 278 276 273 272 270 268 266 264 261 258 257 257 258
319 317 315 314 316 316 317 319 319 319 317 315 313 311 312 313 313 312 311 312 311 311 310 307 302 296 294 290 286 284 280 277 275 273 272 270 268 265 264 262 261 260 260
322 320 318 314 314 314 317 319 320 319 318 318 317 316 316 315 315 314 314 315 314 315 315 312 306 301 297 294 290 288 285 282 279 276 274 274 272 268 267 267 265 262 260
324 324 323 320 317 318 319 319 318 318 319 319 319 319 319 318 319 317 315 316 316 318 318 315 311 306 301 298 296 292 289 286 282 281 276 275 273 271 269 267 266 263 260
324 323 322 322 321 320 319 317 317 318 319 321 322 321 321 321 322 321 318 318 318 319 318 317 315 310 306 303 300 297 293 288 285 283 281 281 277 272 270 267 265 263 261
325 323 323 322 322 322 323 323 322 321 321 323 324 325 325 325 325 325 324 323 322 321 320 318 316 316 313 309 304 299 297 294 290 289 287 286 283 281 276 271 270 269 266
326 325 325 324 324 325 326 326 325 325 324 325 327 329 330 330 330 331 332 330 329 327 324 323 319 315 314 312 309 305 301 297 293 293 292 289 286 282 281 277 273 273 272
327 326 327 327 326 326 327 329 328 327 329 329 330 332 334 335 336 336 336 337 335 331 327 323 321 318 316 315 313 309 306 301 297 295 295 290 286 284 283 280 278 276 272
327 328 328 328 329 329 330 331 331 332 333 333 335 338 340 341 342 341 341 341 341 337 332 327 323 320 317 317 317 314 310 308 305 301 297 293 288 285 282 281 281 278 274
326 327 328 328 330 332 332 333 334 336 338 339 339 340 341 345 346 345 345 345 344 342 339 335 331 327 324 323 323 319 316 315 312 307 300 296 295 294 290 286 284 283 280
327 328 329 330 331 333 335 336 337 338 340 343 344 343 344 346 346 346 346 347 346 343 342 340 337 334 330 327 325 322 319 317 316 311 305 300 298 297 294 292 289 287 285
328 330 331 331 332 333 335 337 338 338 341 343 347 349 349 349 348 347 348 349 349 347 345 345 343 339 337 334 331 328 324 320 318 316 311 305 300 298 295 292 292 291 290
329 332 333 332 332 331 331 334 335 337 339 340 343 347 349 350 349 348 350 351 350 349 347 345 343 341 341 340 338 335 330 327 325 323 319 313 306 304 301 297 295 294 292
327 332 333 332 332 332 331 332 333 334 335 338 341 343 345 347 350 351 352 351 350 350 348 346 344 341 341 341 340 338 334 331 331 329 323 316 311 307 306 305 301 296 292
324 328 329 330 332 334 334 333 334 333 333 335 337 340 343 347 349 350 352 352 351 351 350 348 346 344 343 342 343 342 339 336 334 331 324 319 314 309 306 306 303 299 296
317 322 324 327 330 332 334 334 333 331 330 332 335 338 341 346 348 349 351 351 351 350 349 349 348 347 346 344 341 340 338 336 334 332 329 324 318 311 307 307 303 299 298
310 314 318 320 323 327 330 330 330 330 331 333 335 337 341 344 346 347 348 348 348 348 348 347 347 346 346 345 342 340 338 336 334 332 331 328 323 317 310 310 306 301 298
305 310 314 316 318 321 325 327 329 330 331 333 334 336 338 340 341 342 344 345 345 345 346 346 346 345 343 342 341 340 338 338 337 335 333 330 326 322 316 314 311 307 302
302 305 309 312 314 317 320 323 326 327 328 330 331 333 336 337 339 340 342 343 343 343 344 345 344 343 342 341 340 339 338 337 336 335 334 331 327 324 320 317 316 314 309
301 302 304 307 310 313 315 318 322 325 326 327 328 330 333 336 338 340 341 342 343 343 343 342 343 343 342 340 340 339 337 337 336 336 335 332 329 326 324 321 320 317 311
298 299 300 302 306 309 313 316 318 321 323 325 326 329 332 335 337 340 341 342 342 343 343 342 342 342 342 340 339 339 337 337 337 337 336 334 333 331 327 324 322 319 317
297 298 298 300 303 306 310 314 317 319 321 324 325 327 330 331 333 336 338 340 340 340 340 341 341 341 340 340 339 338 337 337 337 338 338 337 335 334 332 328 327 324 320
297 295 293 294 299 304 308 310 314 318 322 325 325 327 329 330 331 333 335 337 338 339 339 340 340 341 341 340 339 339 339 338 337 336 336 336 337 336 332 330 329 327 323
293 293 291 292 295 299 304 307 309 314 320 323 324 326 328 330 332 335 336 336 338 339 340 340 340 340 340 340 339 338 339 338 337 336 335 336 336 336 333 331 332 331 326
288 288 289 291 291 295 300 303 305 310 316 320 321 323 327 330 333 335 338 338 339 339 340 339 339 338 338 340 341 341 340 338 337 337 337 336 336 336 335 335 336 334 328